Weather History for Hill City, KS

Change the Weather History Date:

Tuesday, October 12, 2010

  Actual Average Record
Temperature  
Mean Temperature 59 °F 56 °F  
Max Temperature 73 °F 70 °F 95 °F (1975)
Min Temperature 45 °F 41 °F 19 °F (1917)
Degree Days  
Heating Degree Days 5    
Growing Degree Days 10 (Base 50)    
Moisture  
Dew Point 46 °F    
Average Humidity 66    
Maximum Humidity 83    
Minimum Humidity 39    
Precipitation  
Precipitation 0.04 in 0.06 in 1.47 in (2008)
Month to date precipitation 0.21 0.64  
Year to date precipitation 16.11 20.40  
Sea Level Pressure  
Sea Level Pressure 30.15 in    
Wind  
Wind Speed 11 mph (NNW)    
Max Wind Speed 24 mph    
Max Gust Speed 33 mph    
Visibility 10 miles    
Events Rain    
T = Trace of Precipitation, MM = Missing Value Source: NWS Daily Summary

Daily Weather History Graph

Daily Weather History Graph

Search for Another Location

Airport:

Trip Planner

Search our weather history database for the weather conditions in past years. The results will help you decide how hot, cold, wet, or windy it might be!

Date:

Astronomy

Oct. 12, 2010 Rise Set
Actual Time 7:46 AM CDT 7:04 PM CDT
Civil Twilight 7:19 AM CDT 7:31 PM CDT
Nautical Twilight 6:48 AM CDT 8:02 PM CDT
Astronomical Twilight 6:16 AM CDT 8:33 PM CDT
Moon 1:18 PM CDT (10/12) 10:45 PM CDT (10/12)
Length of Visible Light 12h 12m
Length of Day
11h 18m
Waxing Crescent, 29% of the Moon is Illuminated
Oct 12
Waxing Crescent
Oct 14
First Quarter
Oct 22
Full
Oct 30
Last Quarter
Nov 5
New

Hourly Weather History & Observations

Time (CDT) Temp. Dew Point Humidity Pressure Visibility Wind Dir Wind Speed Gust Speed Precip Events Conditions
12:53 AM 51.1 °F 46.0 °F 83% 29.99 in 10.0 mi West 5.8 mph - N/A   Mostly Cloudy
1:53 AM 50.0 °F 45.0 °F 83% 29.99 in 10.0 mi WSW 6.9 mph - N/A   Clear
2:53 AM 48.9 °F 43.0 °F 80% 30.00 in 10.0 mi West 6.9 mph - N/A   Clear
3:53 AM 48.0 °F 43.0 °F 83% 30.00 in 10.0 mi WNW 3.5 mph - N/A   Clear
4:53 AM 48.9 °F 44.1 °F 83% 30.00 in 8.0 mi West 6.9 mph - N/A   Clear
5:53 AM 51.1 °F 45.0 °F 80% 30.01 in 10.0 mi NW 11.5 mph - N/A   Clear
6:53 AM 51.1 °F 45.0 °F 80% 30.04 in 10.0 mi NNW 11.5 mph - N/A   Clear
7:53 AM 52.0 °F 46.0 °F 80% 30.08 in 10.0 mi NNW 15.0 mph - N/A   Clear
8:53 AM 55.9 °F 48.9 °F 77% 30.12 in 10.0 mi NNW 17.3 mph - N/A   Clear
9:53 AM 59.0 °F 51.1 °F 75% 30.14 in 10.0 mi North 24.2 mph 31.1 mph N/A   Clear
10:53 AM 64.0 °F 52.0 °F 65% 30.17 in 10.0 mi North 24.2 mph 33.4 mph N/A   Clear
11:53 AM 59.0 °F 53.1 °F 81% 30.19 in 7.0 mi North 17.3 mph 31.1 mph 0.03 in Rain Light Rain
12:53 PM 68.0 °F 53.1 °F 59% 30.19 in 10.0 mi North 16.1 mph 24.2 mph 0.01 in   Clear
1:53 PM 70.0 °F 50.0 °F 49% 30.19 in 10.0 mi North 19.6 mph 28.8 mph N/A   Partly Cloudy
2:53 PM 70.0 °F 48.0 °F 46% 30.18 in 10.0 mi North 20.7 mph - N/A   Scattered Clouds
3:53 PM 72.0 °F 46.9 °F 41% 30.19 in 10.0 mi North 17.3 mph 29.9 mph N/A   Clear
4:53 PM 70.0 °F 44.1 °F 39% 30.20 in 10.0 mi North 15.0 mph 26.5 mph N/A   Clear
5:53 PM 68.0 °F 44.1 °F 42% 30.21 in 10.0 mi North 13.8 mph 24.2 mph N/A   Scattered Clouds
6:53 PM 64.9 °F 42.1 °F 43% 30.24 in 10.0 mi North 11.5 mph - N/A   Partly Cloudy
7:53 PM 60.1 °F 44.1 °F 55% 30.27 in 10.0 mi NNW 8.1 mph - N/A   Clear
8:53 PM 57.0 °F 42.1 °F 57% 30.29 in 10.0 mi North 10.4 mph - N/A   Clear
9:53 PM 55.0 °F 42.1 °F 62% 30.31 in 10.0 mi North 8.1 mph - N/A   Partly Cloudy
10:53 PM 52.0 °F 39.9 °F 63% 30.32 in 10.0 mi North 8.1 mph - N/A   Partly Cloudy
11:53 PM 50.0 °F 39.0 °F 66% 30.35 in 10.0 mi NNW 4.6 mph - N/A   Clear